[ hide orbit diagram ]
For accurate long-term ephemerides, please instead use our Horizons system.This orbit viewer was implemented using two-body methods, and hence should not be used for determining accurate long-term trajectories (over several years or decades) or planetary encounter circumstances.
Orbital Elements at Epoch 2459000.5 (2020-May-31.0) TDB
Reference: JPL 35 (heliocentric ecliptic J2000)
Element | Value | Uncertainty (1-sigma) | Units |
e | .1583894573624886 | 4.0376e-08 | |
a | 2.588707891265896 | 1.1149e-08 | au |
q | 2.178683853098299 | 1.0779e-07 | au |
i | 15.88856382747145 | 3.2444e-06 | deg |
node | 116.498847990716 | 1.4426e-05 | deg |
peri | 263.2772870302397 | 1.7571e-05 | deg |
M | 317.8839344504048 | 9.7966e-06 | deg |
tp | 2459178.478806626876 (2020-Nov-24.97880663) | 4.1326e-05 | TDB |
period | 1521.328489486388 4.17 | 9.8283e-06 2.691e-08 | d yr |
n | .2366352845476119 | 1.5287e-09 | deg/d |
Q | 2.998731929433494 | 1.2915e-08 | au |
|
| | Orbit Determination Parameters
Additional Information
|
[ show covariance matrix ]
Physical Parameter Table
Parameter |
Symbol |
Value |
Units |
Sigma |
Reference |
Notes |
absolute magnitude |
H |
12.3 |
|
n/a |
MPO344345 |
|
diameter |
diameter |
8.597 |
km |
0.183 |
urn:nasa:pds:neowise_diameters_albedos::2.0[mainbelt] (http://adsabs.harvard.edu/abs/2011ApJ...741...68M) |
|
rotation period |
rot_per |
5.187 |
h |
n/a |
LCDB (Rev. 2020-October); Warner et al., 2009 |
Result based on less than full coverage, so that the period may be wrong by 30 percent or so. Published Reference List: [Alvarez-Candal, A.; Duffard, R.; Angeli, C.A.; Lazzaro, D.; Fernandez, S. (2004) Icarus 172, 388-401.] [Han, X.L.; Li, B.; Zhao, H.; Liu. W.; et al. (2013) Minor Planet Bull. 40, 99-100.] |
geometric albedo |
albedo |
0.345 |
|
0.055 |
urn:nasa:pds:neowise_diameters_albedos::2.0[mainbelt] (http://adsabs.harvard.edu/abs/2011ApJ...741...68M) |
|
|
5542 Moffatt | Discovered 1978 Aug. 6 at the Perth Observatory, Bickley. |
Ethelwin Frances Flamsteed Moffatt (née Winzar, b. 1926) is a direct descendant of John Flamsteed, the first Astronomer Royal. Born in Fremantle, Western Australia, she now resides in Adelaide, where she and her husband, Mervyn Moffatt, are kind benefactors of the Perth Observatory. |
NOTE: some special characters may not display properly (any characters within {} are an attempt to place the proper accent above a character) |
Reference: 20010902/MPCPages.arc | Last Updated: 2009-05-11 |
|
[ show close-approach data ]
|